Home   Weather   San Luis Obispo   Past weeks

Flag for USA Past Weather in San Luis Obispo, California, USA — Yesterday and Last 2 Weeks

Now
84 °F

Sunny.


Feels Like: 82 °F
Forecast: 58 / 81 °F
Wind: 10 mph from Southwest

Location: San Luis Obispo County-Mc Chesney Field

Current Time: Sep 28, 2016 at 5:05:58 PM

Latest Report: Sep 28, 2016 at 3:56 PM


Visibility: 10 mi

Pressure: 29.89 "Hg

Humidity: 31%

Dew Point: 50 °F

Location of San Luis ObispoLocation

Past Weather in San Luis Obispo — Graph

°F

San Luis Obispo Temperature Yesterday

Maximum temperature yesterday: 107 °F (at 12:56 PM)
Minimum temperature yesterday: 61 °F (at 5:56 AM)
Average temperature yesterday: 77 °F

High & Low Weather Summary for the Past Weeks

 TemperatureHumidityPressure
High107 °F (Sep 27, 12:56 PM)96% (Sep 16, 5:56 AM)30.10 "Hg (Sep 16, 5:56 AM)
Low49 °F (Sep 14, 6:56 AM)7% (Sep 26, 12:56 PM)29.77 "Hg (Sep 27, 4:56 PM)
Average69 °F55%29.95 "Hg
* Reported Sep 13 3:56 PM — Sep 28 3:56 PM, San Luis Obispo, Weather by CustomWeather, © 2016

Note: Actual official high and low records may vary slightly from our data, if they occured in-between our weather recording intervals... More about our weather records

Advertising

San Luis Obispo Weather History for the Previous 24 Hours

Scroll right to see more
 ConditionsComfort  
Time TempWeatherWind HumidityBarometerVisibility
3:56 PM
Wed, Sep 28
84 °FSunny.10 mph31%29.89 "Hg10 mi
2:56 PM86 °FSunny.8 mph30%29.89 "Hg10 mi
1:56 PM85 °FSunny.10 mph32%29.89 "Hg10 mi
12:56 PM87 °FSunny.10 mph28%29.89 "Hg10 mi
11:56 AM86 °FSunny.6 mph25%29.90 "Hg10 mi
10:56 AM82 °FSunny.No wind31%29.92 "Hg10 mi
9:56 AM74 °FSunny.No wind41%29.92 "Hg10 mi
8:56 AM62 °FSunny.No wind67%29.92 "Hg10 mi
7:56 AM56 °FSunny.No wind81%29.91 "Hg10 mi
6:56 AM54 °FSunny.No wind77%29.90 "Hg10 mi
5:56 AM55 °FClear.No wind74%29.88 "Hg10 mi
4:56 AM56 °FClear.No wind72%29.88 "Hg10 mi
3:56 AM57 °FClear.No wind72%29.87 "Hg10 mi
2:56 AM58 °FClear.5 mph70%29.87 "Hg10 mi
1:56 AM60 °FClear.No wind67%29.88 "Hg10 mi
12:56 AM61 °FClear.No wind65%29.88 "Hg10 mi
11:56 PM
Tue, Sep 27
62 °FClear.No wind65%29.88 "Hg10 mi
10:56 PM63 °FClear.No wind68%29.87 "Hg10 mi
9:56 PM66 °FClear.5 mph59%29.86 "Hg10 mi
8:56 PM67 °FClear.No wind59%29.86 "Hg10 mi
7:56 PM69 °FClear.6 mph55%29.84 "Hg10 mi
6:56 PM74 °FClear.7 mph41%29.82 "Hg10 mi
5:56 PM82 °FSunny.14 mph24%29.78 "Hg10 mi
Weather by CustomWeather, © 2016

See weather overviewHow to use our weather pages